This is the latest recevied weather packets stored in our database for station/object K4HOG. If no packets are shown the sender has not sent any weather packets the latest 10 day(s).
| Time | Temp. | Humidity | Pressure | Rain* | Wind** | Luminosity | Snow |
|---|---|---|---|---|---|---|---|
| 1777936636 | 25.56° C | 52% | 1013.9 hPa | 0 mm | - | 34 W/m² | - |
| 1777936333 | 26.11° C | 51% | 1014 hPa | 0 mm | - | 37 W/m² | - |
| 1777936029 | 26.11° C | 50% | 1013.8 hPa | 0 mm | - | 40 W/m² | - |
| 1777935728 | 26.11° C | 49% | 1013.9 hPa | 0 mm | - | 44 W/m² | - |
| 1777935426 | 26.67° C | 48% | 1013.9 hPa | 0 mm | - | 47 W/m² | - |
| 1777935121 | 26.67° C | 47% | 1014 hPa | 0 mm | - | 50 W/m² | - |
| 1777934819 | 27.22° C | 47% | 1013.8 hPa | 0 mm | - | 58 W/m² | - |
| 1777934515 | 27.22° C | 46% | 1013.9 hPa | 0 mm | - | 110 W/m² | - |
| 1777934213 | 27.78° C | 43% | 1013.8 hPa | 0 mm | - | 163 W/m² | - |
| 1777933908 | 27.78° C | 43% | 1013.8 hPa | 0 mm | - | 179 W/m² | - |
| 1777933605 | 28.33° C | 41% | 1013.9 hPa | 0 mm | - | 205 W/m² | - |
| 1777933302 | 28.33° C | 41% | 1013.7 hPa | 0 mm | - | 220 W/m² | - |
| 1777933000 | 28.33° C | 39% | 1013.8 hPa | 0 mm | - | 233 W/m² | - |
| 1777932696 | 28.89° C | 39% | 1014.1 hPa | 0 mm | - | 254 W/m² | - |
| 1777932393 | 28.33° C | 40% | 1013.9 hPa | 0 mm | - | 272 W/m² | - |
| 1777932091 | 28.33° C | 39% | 1013.9 hPa | 0 mm | - | 291 W/m² | - |
| 1777931786 | 28.33° C | 39% | 1013.9 hPa | 0 mm | - | 309 W/m² | - |
| 1777931484 | 28.33° C | 39% | 1013.6 hPa | 0 mm | - | 335 W/m² | - |
| 1777931180 | 28.89° C | 37% | 1013.8 hPa | 0 mm | - | 356 W/m² | - |
| 1777930876 | 28.89° C | 36% | 1013.9 hPa | 0 mm | - | 370 W/m² | - |
| 1777930573 | 28.33° C | 37% | 1013.7 hPa | 0 mm | - | 378 W/m² | - |
| 1777930270 | 28.89° C | 36% | 1013.8 hPa | 0 mm | - | 406 W/m² | - |
| 1777929966 | 28.33° C | 39% | 1013.9 hPa | 0 mm | - | 422 W/m² | - |
| 1777929663 | 28.33° C | 38% | 1014 hPa | 0 mm | - | 438 W/m² | - |
| 1777929360 | 28.89° C | 36% | 1013.9 hPa | 0 mm | - | 458 W/m² | - |
* Rain latest hour (hover to see other rain measurements)
** Current wind speed in m/s (hover to see current wind gust speed)